This is the latest recevied weather packets stored in our database for station/object KB1FPD. If no packets are shown the sender has not sent any weather packets the latest 10 day(s).
| Time | Temp. | Humidity | Pressure | Rain* | Wind** | Luminosity | Snow |
|---|---|---|---|---|---|---|---|
| 1777930451 | 21.67° C | 48% | 1009.6 hPa | 0 mm | - | - | - |
| 1777930154 | 21.67° C | 47% | 1009.5 hPa | 0 mm | - | - | - |
| 1777929851 | 21.11° C | 49% | 1009.5 hPa | 0 mm | - | - | - |
| 1777929551 | 21.11° C | 52% | 1009.5 hPa | 0 mm | - | - | - |
| 1777929250 | 20.56° C | 47% | 1009.5 hPa | 0 mm | - | - | - |
| 1777928952 | 21.11° C | 47% | 1009.6 hPa | 0 mm | - | - | - |
| 1777928646 | 21.11° C | 48% | 1009.5 hPa | 0 mm | - | - | - |
| 1777928347 | 21.11° C | 46% | 1009.4 hPa | 0 mm | - | - | - |
| 1777928047 | 21.67° C | 47% | 1009.5 hPa | 0 mm | - | - | - |
| 1777927752 | 21.67° C | 47% | 1009.5 hPa | 0 mm | - | - | - |
| 1777927448 | 22.22° C | 45% | 1009.5 hPa | 0 mm | - | - | - |
| 1777927149 | 21.67° C | 49% | 1009.4 hPa | 0 mm | - | - | - |
| 1777926856 | 21.67° C | 51% | 1009.4 hPa | 0 mm | - | - | - |
| 1777926550 | 21.67° C | 50% | 1009.6 hPa | 0 mm | - | - | - |
| 1777926250 | 21.67° C | 50% | 1009.5 hPa | 0 mm | - | - | - |
| 1777925950 | 21.67° C | 48% | 1009.7 hPa | 0 mm | - | - | - |
| 1777925652 | 21.67° C | 47% | 1009.8 hPa | 0 mm | - | - | - |
| 1777925354 | 21.67° C | 51% | 1009.9 hPa | 0 mm | - | - | - |
| 1777925051 | 21.67° C | 50% | 1010.1 hPa | 0 mm | - | - | - |
| 1777924750 | 21.67° C | 48% | 1010.3 hPa | 0 mm | - | - | - |
| 1777924449 | 21.67° C | 51% | 1010.4 hPa | 0 mm | - | - | - |
| 1777924149 | 21.11° C | 51% | 1010.4 hPa | 0 mm | - | - | - |
| 1777923848 | 21.11° C | 50% | 1010.6 hPa | 0 mm | - | - | - |
| 1777923558 | 21.11° C | 49% | 1010.6 hPa | 0 mm | - | - | - |
| 1777923253 | 21.11° C | 49% | 1010.6 hPa | 0 mm | - | - | - |
* Rain latest hour (hover to see other rain measurements)
** Current wind speed in m/s (hover to see current wind gust speed)